EW0534 Weather Reports


time (UTC)temp
C
wind
direction
speed
KPH
gust
KPH
rain 1hr
cm
rain 24hr
cm
rain mn
cm
humidity
%
barometer
mb
20260903043511 23 219 0.0 0.0 0.00 0.00 0.00 93 1014.9
20260903043021 23 219 0.0 0.0 0.00 0.00 0.00 93 1014.9
20260903042511 23 219 0.0 0.0 0.00 0.00 0.00 93 1014.9
20260903042011 23 219 0.0 0.0 0.00 0.00 0.00 93 1014.9
20260903041510 23 219 0.0 0.0 0.00 0.00 0.00 93 1014.8
20260903041010 23 219 0.0 0.0 0.00 0.00 0.00 93 1014.8
20260903040511 23 219 0.0 0.0 0.00 0.00 0.00 93 1014.8
20260903040009 24 219 0.0 0.0 0.00 0.00 0.00 93 1014.8
20260903035508 24 219 0.0 0.0 0.00 0.00 0.00 93 1014.8
20260903035007 24 219 0.0 0.0 0.00 0.00 0.00 93 1014.8
20260903034508 23 219 0.0 0.0 0.00 0.00 0.00 93 1014.8
20260903034007 24 219 0.0 0.0 0.00 0.00 0.00 93 1014.9
20260903033507 24 219 0.0 0.0 0.00 0.00 0.00 93 1014.9
20260903033013 24 219 0.0 0.0 0.00 0.00 0.00 93 1014.9
20260903032510 24 219 0.0 0.0 0.00 0.00 0.00 93 1015.0
20260903032006 24 219 0.0 0.0 0.00 0.00 0.00 93 1015.0
20260903031507 24 219 0.0 0.0 0.00 0.00 0.00 93 1015.0
20260903031008 24 219 0.0 0.0 0.00 0.00 0.00 92 1015.1
20260903030507 24 219 0.0 0.0 0.00 0.00 0.00 92 1015.1
20260903030006 24 219 0.0 0.0 0.00 0.00 0.00 92 1015.2
20260903025506 25 219 0.0 0.0 0.00 0.00 0.00 91 1015.2
20260903025005 25 219 0.0 0.0 0.00 0.00 0.00 91 1015.3
20260903024505 25 219 0.0 0.0 0.00 0.00 0.00 91 1015.3
20260903024005 25 219 0.0 0.0 0.00 0.00 0.00 91 1015.3
20260903023507 25 219 0.0 0.0 0.00 0.00 0.00 91 1015.3
20260903023005 25 219 0.0 0.0 0.00 0.00 0.00 91 1015.3
20260903022505 25 219 0.0 0.0 0.00 0.00 0.00 91 1015.3
20260903022005 25 219 0.0 0.0 0.00 0.00 0.00 90 1015.3
20260903021512 25 219 0.0 0.0 0.00 0.00 0.00 90 1015.4
20260903021007 25 219 0.0 0.0 0.00 0.00 0.00 90 1015.4
20260903020508 25 219 0.0 0.0 0.00 0.00 0.00 90 1015.3
20260903020004 25 219 0.0 0.0 0.00 0.00 0.00 89 1015.3
20260903015505 25 219 0.0 0.0 0.00 0.00 0.00 88 1015.3
20260903015004 25 219 0.0 0.0 0.00 0.00 0.00 88 1015.3
20260903014503 25 219 0.0 0.0 0.00 0.00 0.00 88 1015.2
20260903014005 25 219 0.0 0.0 0.00 0.00 0.00 88 1015.2
20260903013504 26 219 0.0 0.0 0.00 0.00 0.00 87 1015.1
20260903013004 26 219 0.0 0.0 0.00 0.00 0.00 87 1015.1
20260903012503 26 219 0.0 0.0 0.00 0.00 0.00 86 1015.1
20260903012006 26 219 0.0 1.6 0.00 0.00 0.00 86 1015.1
20260903011503 26 219 0.0 1.6 0.00 0.00 0.00 85 1015.1
20260903011005 26 219 0.0 0.0 0.00 0.00 0.00 84 1014.9
20260903010503 26 219 0.0 0.0 0.00 0.00 0.00 84 1014.8
20260903010006 26 219 0.0 0.0 0.00 0.00 0.00 84 1014.7
20260903005503 27 219 0.0 0.0 0.00 0.00 0.00 83 1014.7
20260903005001 27 219 0.0 0.0 0.00 0.00 0.00 82 1014.7
20260903004502 27 219 0.0 0.0 0.00 0.00 0.00 81 1014.6
20260903004002 27 219 0.0 0.0 0.00 0.00 0.00 80 1014.6
20260903003502 28 219 0.0 0.0 0.00 0.00 0.00 78 1014.5
20260903003003 28 219 0.0 0.0 0.00 0.00 0.00 77 1014.5
20260903002502 28 219 0.0 0.0 0.00 0.00 0.00 76 1014.5
20260903002002 28 219 0.0 0.0 0.00 0.00 0.00 75 1014.5
20260903001507 28 219 0.0 0.0 0.00 0.00 0.00 75 1014.5
20260903001001 29 219 0.0 0.0 0.00 0.00 0.00 73 1014.5
20260903000502 29 219 0.0 0.0 0.00 0.00 0.00 72 1014.6
20260903000002 30 219 0.0 0.0 0.00 0.00 0.00 71 1014.5
20260902235503 30 219 0.0 0.0 0.00 0.00 0.00 70 1014.4
20260902235101 30 219 0.0 3.2 0.00 0.00 0.00 70 1014.4
20260902234624 30 219 0.0 3.2 0.00 0.00 0.00 69 1014.4
20260902234103 30 197 0.0 0.0 0.00 0.00 0.00 69 1014.4
20260902233600 31 197 0.0 0.0 0.00 0.00 0.00 69 1014.4
20260902233100 31 196 0.0 0.0 0.00 0.00 0.00 68 1014.4
20260902232603 31 196 0.0 0.0 0.00 0.00 0.00 70 1014.4
20260902232059 31 196 0.0 0.0 0.00 0.00 0.00 67 1014.6
20260902231611 31 196 0.0 0.0 0.00 0.00 0.00 67 1014.5
20260902231059 31 196 0.0 4.8 0.00 0.00 0.00 66 1014.5
20260902230602 31 196 0.0 4.8 0.00 0.00 0.00 66 1014.6
20260902230502 31 196 0.0 4.8 0.00 0.00 0.00 65 1014.6
20260902230113 31 198 0.0 0.0 0.00 0.00 0.00 65 1014.6
20260902225559 32 198 0.0 0.0 0.00 0.00 0.00 64 1014.6
20260902225058 32 188 0.0 1.6 0.00 0.00 0.00 64 1014.6
20260902224602 32 187 0.0 6.4 0.00 0.00 0.00 63 1014.6
20260902224058 32 199 0.0 4.8 0.00 0.00 0.00 63 1014.6
20260902223558 32 178 0.0 1.6 0.00 0.00 0.00 63 1014.6
20260902223058 32 261 0.0 4.8 0.00 0.00 0.00 62 1014.6
20260902222558 32 193 0.0 4.8 0.00 0.00 0.00 61 1014.6
20260902222101 32 213 0.0 8.0 0.00 0.00 0.00 60 1014.5
20260902221557 33 211 0.0 8.0 0.00 0.00 0.00 59 1014.6
20260902221057 33 280 1.6 6.4 0.00 0.00 0.00 58 1014.5
20260902220559 33 275 0.0 6.4 0.00 0.00 0.00 59 1014.6
20260902215557 33 204 0.0 8.0 0.00 0.00 0.00 60 1014.6
20260902215055 33 200 3.2 8.0 0.00 0.00 0.00 57 1014.6
20260902214603 33 241 0.0 6.4 0.00 0.00 0.00 59 1014.7
20260902214055 33 218 0.0 4.8 0.00 0.00 0.00 57 1014.7
20260902213554 33 282 0.0 8.0 0.00 0.00 0.00 58 1014.7
20260902213054 33 216 0.0 8.0 0.00 0.00 0.00 59 1014.7
20260902212554 33 284 1.6 11.3 0.00 0.00 0.00 58 1014.8
20260902212055 33 196 1.6 11.3 0.00 0.00 0.00 58 1014.7
20260902211555 33 236 0.0 9.7 0.00 0.00 0.00 58 1014.8
20260902211054 33 175 3.2 9.7 0.00 0.00 0.00 58 1014.9
20260902210555 33 186 4.8 14.5 0.00 0.00 0.00 58 1014.9
20260902210055 33 190 4.8 14.5 0.00 0.00 0.00 56 1014.9
20260902205553 33 219 1.6 12.9 0.00 0.00 0.00 56 1014.9
20260902205054 33 170 3.2 12.9 0.00 0.00 0.00 57 1014.9
20260902204553 33 274 0.0 11.3 0.00 0.00 0.00 56 1014.9
20260902204052 33 226 0.0 11.3 0.00 0.00 0.00 56 1014.9
20260902203551 34 189 4.8 9.7 0.00 0.00 0.00 56 1015.0
20260902203052 34 282 0.0 9.7 0.00 0.00 0.00 55 1015.0
20260902202549 34 194 0.0 8.0 0.00 0.00 0.00 57 1015.0
20260902202049 34 205 1.6 9.7 0.00 0.00 0.00 57 1015.1
20260902201548 34 210 0.0 4.8 0.00 0.00 0.00 61 1015.1
20260902201050 34 300 0.0 1.6 0.00 0.00 0.00 61 1015.2
20260902200548 34 267 0.0 4.8 0.00 0.00 0.00 61 1015.2
20260902200047 34 269 0.0 9.7 0.00 0.00 0.00 59 1015.2
20260902195547 34 217 1.6 9.7 0.00 0.00 0.00 55 1015.4
20260902195044 34 213 1.6 9.7 0.00 0.00 0.00 55 1015.4
20260902194545 34 230 1.6 8.0 0.00 0.00 0.00 58 1015.5
20260902194045 35 217 0.0 16.1 0.00 0.00 0.00 56 1015.5
20260902193544 34 234 4.8 16.1 0.00 0.00 0.00 54 1015.5
20260902193043 33 260 0.0 6.4 0.00 0.00 0.00 56 1015.6
20260902192543 34 257 0.0 11.3 0.00 0.00 0.00 57 1015.7
20260902192044 34 261 3.2 12.9 0.00 0.00 0.00 56 1015.7
20260902191541 34 274 1.6 12.9 0.00 0.00 0.00 55 1015.8
20260902191040 34 233 3.2 11.3 0.00 0.00 0.00 56 1015.8
20260902190540 34 264 0.0 11.3 0.00 0.00 0.00 59 1015.8
20260902190041 34 267 1.6 8.0 0.00 0.00 0.00 58 1015.9
20260902185540 34 240 0.0 8.0 0.00 0.00 0.00 58 1016.0
20260902185045 33 188 1.6 14.5 0.00 0.00 0.00 59 1016.0
20260902184538 33 259 4.8 14.5 0.00 0.00 0.00 57 1016.0
20260902184038 33 292 1.6 8.0 0.00 0.00 0.00 59 1016.1
20260902183538 33 244 1.6 12.9 0.00 0.00 0.00 60 1016.1
20260902183040 33 284 1.6 12.9 0.00 0.00 0.00 59 1016.1
20260902182537 33 301 0.0 8.0 0.00 0.00 0.00 62 1016.2
20260902182037 33 233 0.0 9.7 0.00 0.00 0.00 61 1016.2
20260902181537 33 312 1.6 9.7 0.00 0.00 0.00 60 1016.3
20260902181035 33 219 0.0 9.7 0.00 0.00 0.00 62 1016.3
20260902180535 33 266 0.0 6.4 0.00 0.00 0.00 66 1016.4
20260902180040 33 232 1.6 9.7 0.00 0.00 0.00 63 1016.4
20260902175535 33 188 0.0 11.3 0.00 0.00 0.00 65 1016.4
20260902175036 32 271 1.6 12.9 0.00 0.00 0.00 62 1016.5
20260902174535 32 213 1.6 12.9 0.00 0.00 0.00 65 1016.6
20260902174035 33 286 0.0 9.7 0.00 0.00 0.00 64 1016.6
20260902173533 33 217 0.0 8.0 0.00 0.00 0.00 65 1016.6
20260902173035 33 245 1.6 8.0 0.00 0.00 0.00 63 1016.6
20260902172533 33 273 0.0 9.7 0.00 0.00 0.00 63 1016.7
20260902172032 32 294 1.6 9.7 0.00 0.00 0.00 64 1016.8
20260902171531 32 281 1.6 8.0 0.00 0.00 0.00 63 1016.9
20260902171029 32 223 1.6 12.9 0.00 0.00 0.00 63 1016.9
20260902170530 32 286 1.6 12.9 0.00 0.00 0.00 66 1016.9
20260902170030 32 243 1.6 11.3 0.00 0.00 0.00 63 1017.0
20260902165527 32 249 0.0 0.0 0.00 0.00 0.00 65 1016.9
20260902165030 32 188 0.0 0.0 0.00 0.00 0.00 65 1017.0
20260902164527 32 283 0.0 0.0 0.00 0.00 0.00 67 1017.0
20260902164025 32 279 0.0 0.0 0.00 0.00 0.00 67 1017.1
20260902163524 32 274 0.0 0.0 0.00 0.00 0.00 68 1017.1
20260902163023 32 245 0.0 0.0 0.00 0.00 0.00 70 1017.2
20260902162522 32 240 0.0 0.0 0.00 0.00 0.00 68 1017.2
20260902162021 32 284 0.0 0.0 0.00 0.00 0.00 70 1017.2
20260902161535 32 234 0.0 0.0 0.00 0.00 0.00 65 1017.2
20260902161021 31 264 0.0 0.0 0.00 0.00 0.00 68 1017.3
20260902160518 32 204 0.0 0.0 0.00 0.00 0.00 68 1017.3
20260902160018 32 251 0.0 0.0 0.00 0.00 0.00 73 1017.4
20260902155517 32 244 0.0 0.0 0.00 0.00 0.00 69 1017.4
20260902155018 32 257 0.0 0.0 0.00 0.00 0.00 71 1017.5
20260902154515 31 273 0.0 0.0 0.00 0.00 0.00 72 1017.5
20260902154013 31 271 0.0 0.0 0.00 0.00 0.00 73 1017.6
20260902153515 31 279 0.0 0.0 0.00 0.00 0.00 72 1017.6
20260902153012 31 242 0.0 0.0 0.00 0.00 0.00 72 1017.5
20260902152509 31 252 0.0 0.0 0.00 0.00 0.00 72 1017.5
20260902152008 31 248 0.0 0.0 0.00 0.00 0.00 72 1017.6
20260902151511 31 250 0.0 0.0 0.00 0.00 0.00 72 1017.6
20260902151005 30 279 0.0 0.0 0.00 0.00 0.00 72 1017.6
20260902150504 30 211 0.0 0.0 0.00 0.00 0.00 73 1017.5
20260902150004 30 206 0.0 0.0 0.00 0.00 0.00 76 1017.6
20260902145502 30 202 0.0 0.0 0.00 0.00 0.00 75 1017.6
20260902145100 30 253 0.0 0.0 0.00 0.00 0.00 75 1017.6
20260902144613 30 179 0.0 0.0 0.00 0.00 0.00 74 1017.6
20260902144058 30 198 0.0 0.0 0.00 0.00 0.00 77 1017.5
20260902143556 30 258 0.0 0.0 0.00 0.00 0.00 76 1017.5
20260902143056 29 273 0.0 0.0 0.00 0.00 0.00 78 1017.5
20260902142553 29 241 0.0 0.0 0.00 0.00 0.00 77 1017.6
20260902142052 29 219 0.0 0.0 0.00 0.00 0.00 77 1017.6
20260902141551 28 230 0.0 0.0 0.00 0.00 0.00 78 1017.6
20260902141051 28 228 0.0 0.0 0.00 0.00 0.00 79 1017.5
20260902140547 28 241 0.0 0.0 0.00 0.00 0.00 79 1017.5
20260902140049 28 248 0.0 0.0 0.00 0.00 0.00 81 1017.5
20260902135544 28 248 0.0 0.0 0.00 0.00 0.00 83 1017.6
20260902135042 28 259 0.0 0.0 0.00 0.00 0.00 81 1017.5
20260902134546 27 265 0.0 0.0 0.00 0.00 0.00 82 1017.4
20260902134040 27 242 0.0 0.0 0.00 0.00 0.00 82 1017.4
20260902133539 27 242 0.0 0.0 0.00 0.00 0.00 83 1017.4
20260902133038 27 221 0.0 0.0 0.00 0.00 0.00 84 1017.5
20260902132538 26 221 0.0 0.0 0.00 0.00 0.00 85 1017.5
20260902132034 26 221 0.0 0.0 0.00 0.00 0.00 86 1017.5
20260902131537 26 227 0.0 0.0 0.00 0.00 0.00 85 1017.5
20260902131032 26 227 0.0 0.0 0.00 0.00 0.00 87 1017.6
20260902130531 25 206 0.0 0.0 0.00 0.00 0.00 90 1017.6
20260902130029 25 206 0.0 0.0 0.00 0.00 0.00 92 1017.5
20260902125527 25 206 0.0 0.0 0.00 0.00 0.00 92 1017.4
20260902125029 24 206 0.0 0.0 0.00 0.00 0.00 93 1017.4
20260902124531 24 206 0.0 0.0 0.00 0.00 0.00 94 1017.4
20260902124022 23 206 0.0 0.0 0.00 0.00 0.00 95 1017.3
20260902123521 23 206 0.0 0.0 0.00 0.00 0.00 95 1017.3
20260902123020 23 206 0.0 0.0 0.00 0.00 0.00 96 1017.3
20260902122519 23 206 0.0 0.0 0.00 0.00 0.00 96 1017.3
20260902122017 22 206 0.0 0.0 0.00 0.00 0.00 96 1017.3
20260902121515 22 206 0.0 0.0 0.00 0.00 0.00 96 1017.3
20260902121014 22 206 0.0 0.0 0.00 0.00 0.00 96 1017.3
20260902120513 22 206 0.0 0.0 0.00 0.00 0.00 97 1017.3
20260902120020 21 206 0.0 0.0 0.00 0.00 0.00 96 1017.2
20260902115511 21 206 0.0 0.0 0.00 0.00 0.00 96 1017.1
20260902115008 21 206 0.0 0.0 0.00 0.00 0.00 96 1017.2
20260902114517 21 206 0.0 0.0 0.00 0.00 0.00 96 1017.1
20260902114005 21 206 0.0 0.0 0.00 0.00 0.00 96 1016.9
20260902113503 21 206 0.0 0.0 0.00 0.00 0.00 96 1016.8
20260902113003 21 206 0.0 0.0 0.00 0.00 0.00 95 1016.8
20260902112502 21 206 0.0 0.0 0.00 0.00 0.00 95 1016.8
20260902112004 21 206 0.0 0.0 0.00 0.00 0.00 95 1016.8
20260902111500 21 206 0.0 0.0 0.00 0.00 0.00 95 1016.8
20260902111100 21 206 0.0 0.0 0.00 0.00 0.00 95 1016.8
20260902110602 21 206 0.0 0.0 0.00 0.00 0.00 95 1016.7
20260902110001 21 206 0.0 0.0 0.00 0.00 0.00 95 1016.8
20260902105604 21 206 0.0 0.0 0.00 0.00 0.00 95 1016.8
20260902105059 21 206 0.0 0.0 0.00 0.00 0.00 95 1016.7
20260902104603 21 206 0.0 0.0 0.00 0.00 0.00 95 1016.8
20260902104059 21 206 0.0 0.0 0.00 0.00 0.00 95 1016.8
20260902103601 21 206 0.0 0.0 0.00 0.00 0.00 95 1016.8
20260902103117 21 206 0.0 0.0 0.00 0.00 0.00 95 1016.7
20260902102557 21 206 0.0 0.0 0.00 0.00 0.00 95 1016.7
20260902102057 21 206 0.0 0.0 0.00 0.00 0.00 95 1016.7
20260902101557 21 206 0.0 0.0 0.00 0.00 0.00 95 1016.6
20260902101056 21 206 0.0 0.0 0.00 0.00 0.00 95 1016.6
20260902100556 21 206 0.0 0.0 0.00 0.00 0.00 95 1016.6
20260902100056 21 206 0.0 0.0 0.00 0.00 0.00 95 1016.6
20260902095557 21 206 0.0 0.0 0.00 0.00 0.00 95 1016.6
20260902095055 21 206 0.0 0.0 0.00 0.00 0.00 95 1016.7
20260902094559 21 206 0.0 0.0 0.00 0.00 0.00 95 1016.6
20260902094055 21 206 0.0 0.0 0.00 0.00 0.00 95 1016.6
20260902093555 21 206 0.0 0.0 0.00 0.00 0.00 95 1016.7
20260902093103 21 206 0.0 0.0 0.00 0.00 0.00 95 1016.7
20260902092554 21 206 0.0 0.0 0.00 0.00 0.00 95 1016.6
20260902092057 21 206 0.0 0.0 0.00 0.00 0.00 95 1016.6
20260902091556 21 206 0.0 0.0 0.00 0.00 0.00 95 1016.5
20260902091055 21 206 0.0 0.0 0.00 0.00 0.00 95 1016.5
20260902090556 21 206 0.0 0.0 0.00 0.00 0.00 95 1016.5
20260902090059 21 206 0.0 0.0 0.00 0.00 0.00 95 1016.5
20260902085554 21 206 0.0 0.0 0.00 0.00 0.00 95 1016.4
20260902085050 21 206 0.0 0.0 0.00 0.00 0.00 95 1016.4
20260902084550 21 206 0.0 0.0 0.00 0.00 0.00 95 1016.3
20260902084053 21 206 0.0 0.0 0.00 0.00 0.00 95 1016.3
20260902083550 21 206 0.0 0.0 0.00 0.00 0.00 95 1016.3
20260902083048 21 206 0.0 0.0 0.00 0.00 0.00 95 1016.2
20260902082548 21 206 0.0 0.0 0.00 0.00 0.00 95 1016.2
20260902082047 21 206 0.0 0.0 0.00 0.00 0.00 95 1016.2
20260902081550 21 206 0.0 0.0 0.00 0.00 0.00 95 1016.1
20260902081046 21 206 0.0 0.0 0.00 0.00 0.00 95 1016.1
20260902080546 21 206 0.0 0.0 0.00 0.00 0.00 95 1016.0
20260902080046 22 206 0.0 0.0 0.00 0.00 0.00 95 1016.0
20260902075545 22 206 0.0 0.0 0.00 0.00 0.00 95 1016.0
20260902075045 22 206 0.0 0.0 0.00 0.00 0.00 95 1015.9
20260902074555 22 206 0.0 0.0 0.00 0.00 0.00 95 1015.9
20260902074044 22 206 0.0 0.0 0.00 0.00 0.00 95 1016.0
20260902073548 22 206 0.0 0.0 0.00 0.00 0.00 95 1015.9
20260902073046 22 206 0.0 0.0 0.00 0.00 0.00 95 1015.9
20260902072544 22 206 0.0 0.0 0.00 0.00 0.00 95 1015.8
20260902072043 22 206 0.0 0.0 0.00 0.00 0.00 95 1015.8
20260902071546 22 206 0.0 0.0 0.00 0.00 0.00 95 1015.8
20260902071044 22 206 0.0 0.0 0.00 0.00 0.00 95 1015.8
20260902070544 22 206 0.0 0.0 0.00 0.00 0.00 95 1015.8
20260902070044 22 206 0.0 0.0 0.00 0.00 0.00 95 1015.8
20260902065543 22 206 0.0 0.0 0.00 0.00 0.00 95 1015.7
20260902065046 22 206 0.0 0.0 0.00 0.00 0.00 95 1015.8
20260902064542 22 206 0.0 0.0 0.00 0.00 0.00 95 1015.8
20260902064045 22 206 0.0 0.0 0.00 0.00 0.00 95 1015.8
20260902063541 22 206 0.0 0.0 0.00 0.00 0.00 95 1015.8
20260902063041 22 206 0.0 0.0 0.00 0.00 0.00 95 1015.8
20260902062541 22 206 0.0 0.0 0.00 0.00 0.00 95 1015.8
20260902062042 22 206 0.0 0.0 0.00 0.00 0.00 95 1015.9
20260902061547 22 206 0.0 0.0 0.00 0.00 0.00 95 1015.8
20260902061042 22 206 0.0 0.0 0.00 0.00 0.00 94 1015.7
20260902060539 22 206 0.0 0.0 0.00 0.00 0.00 95 1015.8
20260902060051 22 206 0.0 0.0 0.00 0.00 0.00 94 1015.8
20260902055541 22 206 0.0 0.0 0.00 0.00 0.00 94 1015.9
20260902055037 22 206 0.0 0.0 0.00 0.00 0.00 94 1016.0
20260902054541 22 206 0.0 0.0 0.00 0.00 0.00 94 1016.0
20260902054039 22 206 0.0 0.0 0.00 0.00 0.00 94 1015.9
20260902053541 22 206 0.0 0.0 0.00 0.00 0.00 94 1015.9
20260902053046 22 206 0.0 0.0 0.00 0.00 0.00 94 1015.9
20260902052537 22 206 0.0 0.0 0.00 0.00 0.00 94 1015.9
20260902052036 22 206 0.0 0.0 0.00 0.00 0.00 94 1016.0
20260902051540 22 206 0.0 0.0 0.00 0.00 0.00 93 1015.9
20260902051037 22 206 0.0 0.0 0.00 0.00 0.00 93 1015.9
20260902050535 22 206 0.0 0.0 0.00 0.00 0.00 93 1015.9
20260902050035 23 206 0.0 0.0 0.00 0.00 0.00 93 1015.9
20260902045535 23 206 0.0 0.0 0.00 0.00 0.00 93 1015.9
20260902045033 23 206 0.0 0.0 0.00 0.00 0.00 93 1015.9
20260902044533 23 206 0.0 0.0 0.00 0.00 0.00 93 1015.8
20260902044033 23 206 0.0 0.0 0.00 0.00 0.00 93 1015.8